Weather in Ataq

Yemen     14°31′53″N   46°50′20″E
temp.,
°C
wind,
m/s
gust,
m/s
humid.,
%
clouds,
%
prec.,
mm/h
press.,
hPa
HPBL,
m
20 may, fri
fri2000:00+25sse33375 0.0 101039
03:00+24sse33244 0.0 100915
06:00+24se11224 0.0 101111
09:00+29n12143 0.0 1012588
12:00+34e3596 0.0 10083424
15:00+35se56934 0.0 10063649
18:00+30sse78300 0.0 1008447
21:00+26se48405 0.0 1010256
21 may, sat
sat2100:00+25se333147 0.0 101039
03:00+24s222230 0.0 100911
06:00+24s111873 0.0 101011
09:00+31n1112100 0.0 1011586
12:00+35nne47874 0.0 10083783
15:00+37ne567100 0.0 10054207
18:00+30sse6725100 0.0 1008343
21:00+27sse4529100 0.0 1010141
22 may, sun
sun2200:00+26sse3327100 0.0 101037
03:00+25s222163 0.0 100812
06:00+25n01211 0.0 100911
09:00+31nnw23135 0.0 1010526
12:00+35nnw59859 0.0 10064053
15:00+37ese6810100 0.0 10034068
18:00+32sse662298 0.0 1005403
21:00+27se443310 0.0 100880
23 may, mon
mon2300:00+26sse332918 0.0 100720
03:00+26sse222424 0.0 100712
06:00+25ssw122357 0.0 100811
09:00+32ne3511100 0.0 10081273
12:00+36n45789 0.0 10054188
15:00+37nnw78640 0.0 10024764
18:00+33ese231473 0.0 1004129
21:00+28sse452425 0.0 100685
24 may, tue
tue2400:00+27sse332087 0.0 100718
03:00+26s2218100 0.0 100611
06:00+25sse111750 0.0 100711
09:00+33ne2585 0.0 10081295
12:00+37e56538 0.0 10054068
15:00+37sse881126 0.0 10033072
18:00+32sse78265 0.0 1005513
21:00+28sse483622 0.0 1008169